Location: Hiram
(41.3130°N, 81.1440°W)
Time: 16:45:22
(UTC-04:00)

Amateur Radio Satellites - All Passes

Search period start: 30 August 2016 16:15
Search period end: 31 August 2016 16:15
Location: Hiram, 41.3130°N, 81.1440°W

Satellite Date Start Highest point End Downlink Frequencies (MHz)
Time Altitude Azimuth
ITUPSAT 1 30 Aug 16:17:53 16:22:38 67° 286° (WNW) 16:27:22 437.325
ITAMSAT 1 30 Aug 16:19:21 16:24:00 34° 263° (W) 16:28:43 435.822/435.867
KKS-1 30 Aug 16:23:38 16:26:23 16° 92° (E) 16:29:06 437.445
ISS 30 Aug 16:24:29 16:25:36 11° 231° (SW) 16:26:42 145.825
HORYU 2 30 Aug 16:43:25 16:46:54 23° 66° (ENE) 16:50:23 437.375
BRITE-PL 30 Aug 16:45:30 16:47:19 12° 57° (ENE) 16:49:10 437.365/2234.400
SWISSCUBE 30 Aug 16:49:42 16:53:48 29° 293° (WNW) 16:57:54 437.505
STARS 30 Aug 16:50:57 16:53:29 15° 92° (E) 16:55:59 437.465
MOZHAYETS 4 30 Aug 16:51:06 16:55:29 43° 99° (E) 16:59:50
BEESAT 3 30 Aug 16:54:08 16:55:09 11° 38° (NE) 16:56:09 437.485
BEESAT 30 Aug 17:06:48 17:10:29 23° 295° (WNW) 17:14:10 436.000
NOAA 18 30 Aug 17:13:52 17:15:23 11° 55° (NE) 17:16:54 137.9125
Cubesat XI-IV 30 Aug 17:33:42 17:37:07 17° 61° (ENE) 17:40:31 437.490
NOAA 15 30 Aug 17:34:29 17:38:28 22° 63° (ENE) 17:42:28 137.62
GOMX 1 30 Aug 17:41:06 17:44:45 19° 62° (ENE) 17:48:29 467.674
AO-7 30 Aug 17:42:10 17:48:47 26° 266° (W) 17:55:27 29.400- 29.500
CUTE-I 30 Aug 17:43:52 17:47:49 22° 63° (ENE) 17:51:45 437.470
Cosmos 2491 30 Aug 17:45:34 17:53:05 34° 84° (E) 18:00:37 435.465 / 435.565
KKS-1 30 Aug 17:58:54 18:03:12 47° 288° (WNW) 18:07:27 437.445
YUBILEINY 30 Aug 18:02:26 18:11:15 81° 81° (E) 18:19:58 435.215
Cosmos 2504 30 Aug 18:10:13 18:16:30 31° 71° (ENE) 18:22:43 435.465 / 435.565
BEESAT 2 30 Aug 18:18:12 18:21:51 32° 50° (NE) 18:25:27 435.950
HORYU 2 30 Aug 18:19:12 18:23:15 34° 262° (W) 18:27:19 437.375
CUBESAT XI-V 30 Aug 18:19:45 18:24:18 48° 99° (E) 18:28:51 437.345
BRITE-PL 30 Aug 18:19:52 18:24:48 86° 82° (E) 18:30:12 437.365/2234.400
HO-68 30 Aug 18:23:39 18:26:32 13° 50° (NE) 18:29:24 435.675
STARS 30 Aug 18:25:52 18:30:07 49° 288° (WNW) 18:34:19 437.465
MOZHAYETS 4 30 Aug 18:29:05 18:32:19 19° 295° (WNW) 18:35:33
BEESAT 3 30 Aug 18:29:30 18:33:29 80° 57° (ENE) 18:37:26 437.485
LilacSat-2 30 Aug 18:33:51 18:37:33 50° 74° (ENE) 18:41:16 437.200
NOAA 18 30 Aug 18:49:35 18:55:06 75° 73° (ENE) 19:00:37 137.9125
DOVE 4 30 Aug 19:07:11 19:12:15 55° 73° (ENE) 19:17:27 437.250
PCSat 30 Aug 19:08:50 19:10:56 12° 37° (NE) 19:13:01 145.827
Cubesat XI-IV 30 Aug 19:11:21 19:16:38 66° 258° (WSW) 19:21:58 437.490
NOAA 15 30 Aug 19:12:50 19:17:53 48° 260° (W) 19:23:01 137.62
CANX-2 30 Aug 19:15:59 19:18:06 14° 64° (ENE) 19:20:14 2200.000
GOMX 1 30 Aug 19:17:11 19:22:15 59° 260° (W) 19:27:38 467.674
CUTE 1.7 + AOD 2 30 Aug 19:21:25 19:23:32 14° 64° (ENE) 19:25:39 437.475
CUTE-I 30 Aug 19:22:18 19:27:28 51° 260° (W) 19:32:40 437.470
STRAND 1 30 Aug 19:23:37 19:25:18 11° 89° (E) 19:27:00 437.568
CINEMA 3 30 Aug 19:25:09 19:29:09 25° 67° (ENE) 19:33:07 145.822/145.860
Cosmos 2491 30 Aug 19:41:05 19:49:31 53° 284° (WNW) 19:58:04 435.465 / 435.565
BEESAT 2 30 Aug 19:56:18 19:59:31 23° 247° (WSW) 20:02:42 435.950
CUBESAT XI-V 30 Aug 19:58:05 20:01:18 19° 295° (WNW) 20:04:32 437.345
YUBILEINY 30 Aug 20:01:01 20:06:55 21° 282° (WNW) 20:12:50 435.215
BRITE-PL 30 Aug 20:02:54 20:04:06 11° 275° (W) 20:05:19 437.365/2234.400
Cosmos 2504 30 Aug 20:03:17 20:10:02 45° 271° (W) 20:16:46 435.465 / 435.565
HO-68 30 Aug 20:05:48 20:12:52 64° 69° (ENE) 20:19:57 435.675
LilacSat-2 30 Aug 20:11:02 20:12:09 11° 270° (W) 20:13:15 437.200
SEEDS 30 Aug 20:21:06 20:25:01 42° 72° (ENE) 20:28:57 437.485
Oscar 11 30 Aug 20:22:55 20:23:21 10° 61° (ENE) 20:23:47 145.826/435.025
AIST 1 30 Aug 20:27:30 20:31:45 45° 78° (ENE) 20:35:57
FUNcube-1 30 Aug 20:33:18 20:35:19 13° 63° (ENE) 20:37:17 145.935
NOAA 18 30 Aug 20:33:23 20:36:17 14° 270° (W) 20:39:13 137.9125
AAUSAT CUBESAT 2 30 Aug 20:42:33 20:46:22 39° 72° (ENE) 20:50:13 437.432
DOVE 4 30 Aug 20:46:36 20:50:15 19° 269° (W) 20:53:58 437.250
UWE-3 30 Aug 20:47:38 20:51:36 31° 70° (ENE) 20:55:29 435.000/436.395/437.385
CANX-2 30 Aug 20:49:24 20:53:30 53° 260° (W) 20:57:38 2200.000
PCSat 30 Aug 20:50:07 20:55:30 60° 57° (ENE) 21:00:50 145.827
COMPASS 1 30 Aug 20:53:44 20:57:48 69° 76° (ENE) 21:01:56 437.405
CUTE 1.7 + AOD 2 30 Aug 20:54:50 20:58:55 53° 260° (W) 21:03:03 437.475
ZACube-1 30 Aug 20:55:01 20:58:31 23° 68° (ENE) 21:01:58 437.345
CUBEBUG 2 30 Aug 20:56:30 21:01:04 57° 74° (ENE) 21:05:32 437.445
AIST 2 30 Aug 20:57:41 21:01:50 62° 55° (NE) 21:05:59 435.215
STRAND 1 30 Aug 20:59:56 21:05:04 81° 285° (WNW) 21:10:10 437.568
CINEMA 3 30 Aug 21:01:22 21:06:03 39° 263° (W) 21:10:42 145.822/145.860
PRISM 30 Aug 21:20:54 21:23:49 18° 94° (E) 21:26:43 437.425
DELFI C3 30 Aug 21:52:36 21:56:14 37° 72° (ENE) 21:59:55 145.870
Oscar 11 30 Aug 21:54:32 21:58:50 79° 259° (W) 22:03:08 145.826/435.025
HO-68 30 Aug 21:55:23 22:01:02 24° 267° (W) 22:06:42 435.675
SEEDS 30 Aug 21:58:24 22:00:54 16° 268° (W) 22:03:26 437.485
AIST 1 30 Aug 22:06:26 22:08:54 15° 275° (W) 22:11:22
FUNcube-1 30 Aug 22:06:41 22:11:04 62° 259° (W) 22:15:22 145.935
GONETS M04 30 Aug 22:18:42 22:26:00 28° 67° (ENE) 22:33:14
AAUSAT CUBESAT 2 30 Aug 22:19:25 22:22:00 16° 268° (W) 22:24:38 437.432
AUBIESAT-1 30 Aug 22:21:53 22:24:45 17° 59° (ENE) 22:27:36 437.475
UWE-3 30 Aug 22:24:16 22:28:02 25° 265° (W) 22:31:43 435.000/436.395/437.385
M-CUBED/EXP-1 PRIME 30 Aug 22:29:37 22:33:21 24° 61° (ENE) 22:37:02 437.505
ZACube-1 30 Aug 22:30:41 22:34:38 32° 263° (W) 22:38:33 437.345
PCSat 30 Aug 22:34:40 22:38:22 19° 255° (WSW) 22:42:03 145.827
CUBEBUG 2 30 Aug 22:35:31 22:37:59 14° 269° (W) 22:40:25 437.445
AIST 2 30 Aug 22:37:57 22:39:48 13° 252° (WSW) 22:41:39 435.215
STRAND 1 30 Aug 22:42:22 22:43:23 11° 303° (WNW) 22:44:24 437.568
TIGRISAT 30 Aug 22:42:59 22:45:19 14° 91° (E) 22:47:39 435.000
HUMSAT D 30 Aug 22:46:10 22:50:18 79° 75° (ENE) 22:54:25 437.325/437.525
ESTCUBE 1 30 Aug 22:48:33 22:51:07 15° 63° (ENE) 22:53:42 437.505/2401.250
PRISM 30 Aug 22:55:23 22:59:14 37° 290° (WNW) 23:03:05 437.425
Cosmos 2499 30 Aug 22:57:10 23:03:21 31° 72° (ENE) 23:09:34 435.465 / 435.565
UNISAT 6 30 Aug 23:11:35 23:15:26 32° 97° (E) 23:19:14 437.425
O/OREOS (USA 219) 30 Aug 23:19:44 23:24:04 38° 62° (ENE) 23:28:22 437.305
50 SAT 30 Aug 23:19:59 23:21:36 13° 65° (ENE) 23:23:12 437.505
CUBEBUG 1 30 Aug 23:21:15 23:24:34 21° 66° (ENE) 23:27:54 437.445
VELOX 1 30 Aug 23:28:25 23:31:45 21° 66° (ENE) 23:35:06 145.980
DELFI C3 30 Aug 23:28:51 23:31:14 15° 268° (W) 23:33:38 145.870
SO-50 30 Aug 23:33:30 23:38:20 70° 120° (ESE) 23:43:08 436.795
DX 1 30 Aug 23:34:21 23:37:08 17° 64° (ENE) 23:39:56 434.975-435.025
QB50P2 30 Aug 23:45:56 23:46:56 11° 90° (E) 23:47:56 145.880/145.840
ANTELSAT 30 Aug 23:48:06 23:52:24 84° 103° (ESE) 23:56:39 437.575/2403.000
POLYITAN 1 30 Aug 23:48:23 23:49:26 11° 90° (E) 23:50:29 437.675
RS-15 30 Aug 23:49:22 23:57:10 21° 98° (E) 00:05:10 29.354- 29.394
NANOSAT C BR1 30 Aug 23:53:15 23:54:43 12° 90° (E) 23:56:11 145.865
AUBIESAT-1 30 Aug 23:54:08 23:58:43 61° 254° (WSW) 00:03:17 437.475
DANDE 30 Aug 23:56:00 23:57:35 15° 88° (E) 23:59:18 436.750
M-CUBED/EXP-1 PRIME 31 Aug 00:03:09 00:07:34 41° 257° (WSW) 00:12:02 437.505
CUSAT 1 31 Aug 00:05:57 00:09:00 64° 283° (WNW) 00:12:55 437.405
UKube-1 31 Aug 00:06:57 00:10:37 28° 68° (ENE) 00:14:19 .
JAS-2 31 Aug 00:13:38 00:18:43 20° 91° (E) 00:24:03 435.910
GONETS M04 31 Aug 00:14:45 00:23:31 67° 268° (W) 00:32:13
AISAT 31 Aug 00:16:27 00:20:53 71° 75° (ENE) 00:25:22 437.250
TIGRISAT 31 Aug 00:18:11 00:22:18 47° 287° (WNW) 00:26:21 435.000
ESTCUBE 1 31 Aug 00:23:04 00:27:27 55° 260° (W) 00:31:53 437.505/2401.250
PHONESAT 2.4 31 Aug 00:32:52 00:34:54 17° 152° (SSE) 00:36:55 2401.200-2431.200
QB50P1 31 Aug 00:37:22 00:41:20 39° 98° (E) 00:45:17 145.935-145.965
POPSAT HIP 1 31 Aug 00:47:38 00:51:45 51° 100° (E) 00:55:50 437.405
UNISAT 6 31 Aug 00:48:41 00:51:58 22° 293° (WNW) 00:55:13 437.425
Cosmos 2499 31 Aug 00:49:59 00:56:35 44° 270° (W) 01:03:18 435.465 / 435.565
50 SAT 31 Aug 00:51:25 00:54:47 40° 261° (W) 00:58:12 437.505
CUBEBUG 1 31 Aug 00:56:33 01:00:36 36° 263° (W) 01:04:43 437.445
SPROUT 31 Aug 00:56:55 01:01:14 87° 260° (W) 01:05:34 437.525
O/OREOS (USA 219) 31 Aug 00:59:45 01:03:12 21° 259° (WSW) 01:06:38 437.305
VELOX 1 31 Aug 01:03:50 01:07:57 37° 262° (W) 01:12:08 145.980
TISAT 1 31 Aug 01:03:54 01:07:19 24° 68° (ENE) 01:10:44 437.305
DX 1 31 Aug 01:08:43 01:12:56 47° 260° (W) 01:17:11 434.975-435.025
DUCHIFAT 1 31 Aug 01:10:59 01:15:11 86° 101° (E) 01:19:21 145.980
SO-50 31 Aug 01:15:51 01:19:18 19° 319° (NW) 01:22:44 436.795
QB50P2 31 Aug 01:18:58 01:23:09 63° 286° (WNW) 01:27:17 145.880/145.840
POLYITAN 1 31 Aug 01:21:28 01:25:38 62° 286° (WNW) 01:29:46 437.675
NANOSAT C BR1 31 Aug 01:26:41 01:30:49 58° 286° (WNW) 01:34:55 145.865
Oscar 19 31 Aug 01:32:28 01:34:28 12° 89° (E) 01:36:28 437.125/150
DANDE 31 Aug 01:39:04 01:40:18 12° 293° (WNW) 01:41:36 436.750
UKube-1 31 Aug 01:42:59 01:46:37 26° 264° (W) 01:50:16 .
ITUPSAT 1 31 Aug 01:48:56 01:51:51 16° 62° (ENE) 01:54:45 437.325
BUGSAT 1 31 Aug 01:51:18 01:55:25 78° 286° (WNW) 01:59:29 437.445
RS-15 31 Aug 01:56:09 02:07:41 85° 120° (ESE) 02:19:54 29.354- 29.394
AISAT 31 Aug 01:56:51 01:57:49 11° 271° (W) 01:58:48 437.250
JAS-2 31 Aug 01:57:12 02:04:12 79° 286° (WNW) 02:11:52 435.910
PHONESAT 2.4 31 Aug 02:07:55 02:10:52 55° 167° (SSE) 02:13:49 2401.200-2431.200
QB50P1 31 Aug 02:13:58 02:16:48 18° 295° (WNW) 02:19:37 145.935-145.965
GONETS M04 31 Aug 02:15:58 02:18:29 11° 288° (WNW) 02:21:00
SWISSCUBE 31 Aug 02:18:20 02:22:36 35° 69° (ENE) 02:26:53 437.505
POPSAT HIP 1 31 Aug 02:24:50 02:27:06 14° 296° (WNW) 02:29:21 437.405
BEESAT 31 Aug 02:34:45 02:39:16 45° 71° (ENE) 02:43:48 436.000
TISAT 1 31 Aug 02:39:07 02:42:49 29° 263° (W) 02:46:33 437.305
Oscar 19 31 Aug 03:09:09 03:14:22 79° 286° (WNW) 03:19:33 437.125/150
Gurwin Techsat 1B 31 Aug 03:09:36 03:14:45 48° 99° (E) 03:19:52 435.225
KKS-1 31 Aug 03:22:02 03:24:47 16° 63° (ENE) 03:27:31 437.445
ITUPSAT 1 31 Aug 03:24:32 03:29:12 57° 259° (W) 03:33:54 437.325
PHONESAT 2.4 31 Aug 03:44:07 03:47:08 75° 182° (S) 03:50:06 2401.200-2431.200
JAS-2 31 Aug 03:44:22 03:48:19 16° 302° (WNW) 03:52:27 435.910
STARS 31 Aug 03:48:01 03:50:29 15° 63° (ENE) 03:52:58 437.465
AO-7 31 Aug 03:50:03 03:56:03 21° 92° (E) 04:01:59 29.400- 29.500
MOZHAYETS 4 31 Aug 03:52:52 03:57:08 41° 71° (ENE) 04:01:25
Cosmos 2491 31 Aug 03:56:09 04:01:24 17° 60° (ENE) 04:06:39 435.465 / 435.565
SWISSCUBE 31 Aug 03:56:35 04:00:26 25° 265° (W) 04:04:20 437.505
RS-15 31 Aug 04:11:13 04:21:46 36° 327° (NNW) 04:32:48 29.354- 29.394
BEESAT 31 Aug 04:13:56 04:17:15 19° 267° (W) 04:20:36 436.000
ITAMSAT 1 31 Aug 04:31:23 04:36:35 83° 105° (ESE) 04:41:47 435.822/435.867
Gurwin Techsat 1B 31 Aug 04:50:18 04:54:20 23° 296° (WNW) 04:58:23 435.225
Oscar 19 31 Aug 04:51:37 04:52:48 11° 303° (WNW) 04:54:00 437.125/150
KKS-1 31 Aug 04:56:32 05:00:54 52° 260° (W) 05:05:19 437.445
YUBILEINY 31 Aug 05:10:29 05:15:57 18° 77° (ENE) 05:21:25 435.215
AO-85 31 Aug 05:11:56 05:17:12 67° 120° (ESE) 05:22:12 145.980
PHONESAT 2.4 31 Aug 05:20:33 05:23:17 33° 200° (SSW) 05:26:01 2401.200-2431.200
STARS 31 Aug 05:22:01 05:26:22 56° 259° (W) 05:30:46 437.465
CUBESAT XI-V 31 Aug 05:22:54 05:27:17 46° 72° (ENE) 05:31:44 437.345
MOZHAYETS 4 31 Aug 05:31:13 05:34:28 19° 267° (W) 05:37:43
AO-7 31 Aug 05:41:18 05:49:38 80° 290° (WNW) 05:57:54 29.400- 29.500
Cosmos 2491 31 Aug 05:50:54 05:59:47 80° 81° (E) 06:08:39 435.465 / 435.565
HORYU 2 31 Aug 06:09:37 06:13:49 42° 99° (E) 06:18:00 437.375
ITAMSAT 1 31 Aug 06:12:56 06:15:21 13° 301° (WNW) 06:17:44 435.822/435.867
BRITE-PL 31 Aug 06:24:52 06:29:57 32° 94° (E) 06:34:51 437.365/2234.400
SO-50 31 Aug 06:26:51 06:28:15 11° 33° (NNE) 06:29:38 436.795
RS-15 31 Aug 06:30:20 06:39:25 23° 1° (N) 06:48:36 29.354- 29.394
STRAND 1 31 Aug 06:38:45 06:42:13 19° 62° (ENE) 06:45:40 437.568
Cosmos 2504 31 Aug 06:48:43 06:55:27 28° 85° (E) 07:01:50 435.465 / 435.565
AO-85 31 Aug 06:54:10 06:58:05 21° 316° (NW) 07:01:50 145.980
CUBESAT XI-V 31 Aug 07:01:51 07:04:55 17° 268° (W) 07:07:59 437.345
YUBILEINY 31 Aug 07:02:37 07:11:29 89° 276° (W) 07:20:22 435.215
DOVE 4 31 Aug 07:08:08 07:10:52 15° 88° (E) 07:13:31 437.250
NOAA 18 31 Aug 07:12:02 07:16:50 31° 96° (E) 07:21:36 137.9125
GOMX 1 31 Aug 07:19:20 07:24:29 46° 97° (E) 07:29:19 467.674
ISS 31 Aug 07:26:27 07:29:06 23° 134° (SE) 07:31:46 145.825
NOAA 15 31 Aug 07:27:36 07:32:54 63° 102° (ESE) 07:38:09 137.62
Cubesat XI-IV 31 Aug 07:28:31 07:33:42 50° 100° (E) 07:38:50 437.490
AO-7 31 Aug 07:35:48 07:41:08 19° 311° (NW) 07:46:29 29.400- 29.500
CUTE-I 31 Aug 07:39:03 07:44:20 63° 102° (ESE) 07:49:36 437.470
LilacSat-2 31 Aug 07:41:10 07:44:57 78° 103° (ESE) 07:48:42 437.200
HORYU 2 31 Aug 07:47:00 07:50:04 19° 295° (WNW) 07:53:06 437.375
Cosmos 2491 31 Aug 07:49:27 07:55:33 21° 281° (W) 08:01:40 435.465 / 435.565
BRITE-PL 31 Aug 08:03:13 08:08:22 36° 292° (WNW) 08:13:22 437.365/2234.400
SO-50 31 Aug 08:05:09 08:09:43 61° 54° (NE) 08:14:09 436.795
PRISM 31 Aug 08:11:15 08:13:24 14° 63° (ENE) 08:15:33 437.425
STRAND 1 31 Aug 08:15:56 08:20:56 56° 259° (W) 08:25:58 437.568
BEESAT 3 31 Aug 08:22:09 08:23:49 12° 109° (ESE) 08:25:29 437.485
CANX-2 31 Aug 08:34:38 08:38:10 25° 95° (E) 08:41:40 2200.000
COMPASS 1 31 Aug 08:38:49 08:40:00 11° 90° (E) 08:41:10 437.405
CUTE 1.7 + AOD 2 31 Aug 08:39:57 08:43:27 25° 95° (E) 08:46:57 437.475
Cosmos 2504 31 Aug 08:40:10 08:48:22 58° 282° (WNW) 08:56:02 435.465 / 435.565
DOVE 4 31 Aug 08:44:08 08:49:02 59° 287° (WNW) 08:53:37 437.250
RS-15 31 Aug 08:45:37 08:56:54 38° 35° (NE) 09:08:04 29.354- 29.394
CUBEBUG 2 31 Aug 08:50:21 08:51:02 10° 89° (E) 08:51:44 437.445
NOAA 18 31 Aug 08:52:34 08:57:30 36° 293° (WNW) 09:02:24 137.9125
CUSAT 1 31 Aug 08:55:40 08:59:41 16° 65° (ENE) 09:04:00 437.405
CINEMA 3 31 Aug 08:56:12 09:00:33 50° 99° (E) 09:04:40 145.822/145.860
AIST 1 31 Aug 08:57:04 09:00:43 27° 89° (E) 09:04:25
GOMX 1 31 Aug 08:58:03 09:02:12 23° 295° (WNW) 09:06:11 467.674
ISS 31 Aug 09:02:16 09:05:24 42° 331° (NNW) 09:08:34 145.825
YUBILEINY 31 Aug 09:03:42 09:09:35 19° 298° (WNW) 09:15:31 435.215
NOAA 15 31 Aug 09:08:39 09:12:09 18° 299° (WNW) 09:15:38 137.62
Cubesat XI-IV 31 Aug 09:09:25 09:13:24 22° 297° (WNW) 09:17:24 437.490
CUTE-I 31 Aug 09:20:24 09:23:51 18° 299° (WNW) 09:27:19 437.470
HO-68 31 Aug 09:20:53 09:28:02 66° 103° (ESE) 09:35:07 435.675
SEEDS 31 Aug 09:40:03 09:44:17 84° 102° (ESE) 09:48:30 437.485
TIGRISAT 31 Aug 09:41:53 09:44:28 15° 64° (ENE) 09:47:01 435.000
Oscar 11 31 Aug 09:42:32 09:45:35 19° 93° (E) 09:48:37 145.826/435.025
PRISM 31 Aug 09:44:16 09:48:15 51° 260° (W) 09:52:18 437.425
SO-50 31 Aug 09:47:08 09:49:39 15° 251° (WSW) 09:52:07 436.795
BEESAT 2 31 Aug 09:47:09 09:51:00 56° 119° (ESE) 09:54:54 435.950
FUNcube-1 31 Aug 09:55:13 09:58:30 23° 95° (E) 10:01:47 145.935
BEESAT 3 31 Aug 09:57:10 10:01:00 55° 305° (NW) 10:04:52 437.485
AAUSAT CUBESAT 2 31 Aug 09:59:37 10:03:48 76° 101° (E) 10:07:58 437.432
UNISAT 6 31 Aug 10:10:14 10:14:13 31° 70° (ENE) 10:18:09 437.425
CANX-2 31 Aug 10:10:22 10:13:58 27° 291° (WNW) 10:17:34 2200.000
COMPASS 1 31 Aug 10:11:48 10:15:56 61° 285° (WNW) 10:20:04 437.405
UWE-3 31 Aug 10:12:59 10:17:08 64° 101° (E) 10:21:13 435.000/436.395/437.385
CUTE 1.7 + AOD 2 31 Aug 10:15:38 10:19:15 28° 291° (WNW) 10:22:52 437.475
ZACube-1 31 Aug 10:18:28 10:22:28 45° 99° (E) 10:26:26 437.345
CUBEBUG 2 31 Aug 10:23:57 10:28:07 62° 285° (WNW) 10:32:11 437.445
DANDE 31 Aug 10:28:36 10:33:46 31° 75° (ENE) 10:40:03 436.750
HUMSAT D 31 Aug 10:31:24 10:32:59 12° 91° (E) 10:34:34 437.325/437.525
CINEMA 3 31 Aug 10:34:37 10:37:13 15° 297° (WNW) 10:39:45 145.822/145.860
AIST 1 31 Aug 10:34:39 10:38:15 25° 286° (WNW) 10:41:54
CUSAT 1 31 Aug 10:35:32 10:42:23 80° 80° (E) 10:50:20 437.405
ISS 31 Aug 10:40:29 10:42:32 15° 350° (N) 10:44:35 145.825
ANTELSAT 31 Aug 10:46:22 10:50:55 74° 75° (ENE) 10:55:24 437.575/2403.000
AIST 2 31 Aug 10:57:37 10:59:15 12° 108° (ESE) 11:00:53 435.215
RS-15 31 Aug 10:58:25 11:10:49 81° 241° (WSW) 11:22:56 29.354- 29.394
DELFI C3 31 Aug 11:04:20 11:08:19 64° 101° (E) 11:12:18 145.870
HO-68 31 Aug 11:09:33 11:15:10 26° 302° (WNW) 11:20:45 435.675
TIGRISAT 31 Aug 11:16:13 11:20:43 56° 260° (W) 11:25:08 435.000
Oscar 11 31 Aug 11:17:51 11:21:51 38° 289° (WNW) 11:25:50 145.826/435.025
GONETS M04 31 Aug 11:20:27 11:27:43 31° 83° (E) 11:35:01
BEESAT 2 31 Aug 11:26:37 11:29:10 16° 317° (NW) 11:31:44 435.950
QB50P1 31 Aug 11:29:45 11:33:30 30° 69° (ENE) 11:37:15 145.935-145.965
FUNcube-1 31 Aug 11:31:12 11:34:45 28° 290° (WNW) 11:38:16 145.935
PCSat 31 Aug 11:31:35 11:36:50 55° 114° (ESE) 11:42:08 145.827
Cosmos 2499 31 Aug 11:34:20 11:40:42 27° 85° (E) 11:46:45 435.465 / 435.565
POPSAT HIP 1 31 Aug 11:39:55 11:43:53 38° 71° (ENE) 11:47:51 437.405
M-CUBED/EXP-1 PRIME 31 Aug 11:44:44 11:46:20 12° 94° (E) 11:47:54 437.505
UNISAT 6 31 Aug 11:47:06 11:50:54 26° 265° (W) 11:54:39 437.425
UWE-3 31 Aug 11:51:42 11:53:02 11° 298° (WNW) 11:54:23 435.000/436.395/437.385
ZACube-1 31 Aug 11:55:58 11:58:23 15° 295° (WNW) 12:00:48 437.345
DUCHIFAT 1 31 Aug 12:02:24 12:06:36 62° 74° (ENE) 12:10:48 145.980
HUMSAT D 31 Aug 12:04:56 12:08:55 53° 286° (WNW) 12:12:55 437.325/437.525
AISAT 31 Aug 12:08:20 12:10:30 13° 91° (E) 12:12:39 437.250
JAS-2 31 Aug 12:10:41 12:15:37 43° 68° (ENE) 12:20:58 435.910
DANDE 31 Aug 12:10:52 12:16:32 46° 265° (W) 12:23:37 436.750
QB50P2 31 Aug 12:11:02 12:15:19 86° 261° (W) 12:19:37 145.880/145.840
POLYITAN 1 31 Aug 12:13:32 12:17:49 85° 258° (WSW) 12:22:07 437.675
ESTCUBE 1 31 Aug 12:15:38 12:19:39 30° 96° (E) 12:23:37 437.505/2401.250
ISS 31 Aug 12:17:55 12:19:59 16° 10° (N) 12:22:05 145.825
NANOSAT C BR1 31 Aug 12:18:14 12:22:30 81° 257° (WSW) 12:26:46 145.865
CUSAT 1 31 Aug 12:18:59 12:23:54 21° 274° (W) 12:29:15 437.405
50 SAT 31 Aug 12:20:26 12:22:31 15° 93° (E) 12:24:37 437.505
ANTELSAT 31 Aug 12:27:14 12:28:04 10° 271° (W) 12:28:55 437.575/2403.000
AIST 2 31 Aug 12:33:08 12:37:11 62° 305° (NW) 12:41:18 435.215
BUGSAT 1 31 Aug 12:40:23 12:44:37 71° 75° (ENE) 12:48:51 437.445
DELFI C3 31 Aug 12:41:34 12:42:37 11° 297° (WNW) 12:43:40 145.870
SPROUT 31 Aug 12:44:06 12:46:41 16° 92° (E) 12:49:16 437.525
CUBEBUG 1 31 Aug 12:44:46 12:48:57 39° 98° (E) 12:53:04 437.445
Oscar 19 31 Aug 12:48:37 12:52:15 20° 63° (ENE) 12:55:53 437.125/150
VELOX 1 31 Aug 12:53:35 12:57:47 39° 98° (E) 13:01:57 145.980
Gurwin Techsat 1B 31 Aug 12:55:42 12:56:52 11° 57° (ENE) 12:58:03 435.225
DX 1 31 Aug 12:57:01 13:00:48 28° 96° (E) 13:04:34 434.975-435.025
QB50P1 31 Aug 13:05:53 13:09:16 23° 265° (W) 13:12:41 145.935-145.965
AUBIESAT-1 31 Aug 13:07:53 13:11:50 78° 289° (WNW) 13:15:27 437.475
RS-15 31 Aug 13:13:22 13:21:18 20° 263° (W) 13:29:10 29.354- 29.394
GONETS M04 31 Aug 13:15:23 13:23:57 58° 283° (WNW) 13:32:40
PCSat 31 Aug 13:16:11 13:20:34 24° 313° (NW) 13:24:59 145.827
POPSAT HIP 1 31 Aug 13:16:51 13:19:48 18° 267° (W) 13:22:45 437.405
M-CUBED/EXP-1 PRIME 31 Aug 13:17:22 13:21:16 47° 292° (WNW) 13:24:49 437.505
Cosmos 2499 31 Aug 13:25:28 13:33:22 58° 282° (WNW) 13:40:43 435.465 / 435.565
UKube-1 31 Aug 13:29:09 13:33:22 49° 100° (E) 13:37:34 .
O/OREOS (USA 219) 31 Aug 13:31:58 13:36:12 43° 106° (ESE) 13:40:30 437.305
DUCHIFAT 1 31 Aug 13:41:24 13:42:40 11° 270° (W) 13:43:57 145.980
AISAT 31 Aug 13:42:56 13:47:19 57° 287° (WNW) 13:51:39 437.250
AO-85 31 Aug 13:44:21 13:48:32 51° 53° (NE) 13:52:25 145.980
ESTCUBE 1 31 Aug 13:52:33 13:56:20 27° 292° (WNW) 14:00:07 437.505/2401.250
50 SAT 31 Aug 13:52:52 13:56:13 34° 288° (WNW) 13:59:33 437.505
ISS 31 Aug 13:53:55 13:57:06 44° 30° (NNE) 14:00:16 145.825
JAS-2 31 Aug 13:56:55 14:01:00 23° 268° (W) 14:05:22 435.910
ITAMSAT 1 31 Aug 14:12:25 14:15:39 17° 61° (ENE) 14:18:53 435.822/435.867
SPROUT 31 Aug 14:18:46 14:22:51 44° 288° (WNW) 14:26:53 437.525
CUBEBUG 1 31 Aug 14:21:45 14:24:57 20° 294° (WNW) 14:28:07 437.445
TISAT 1 31 Aug 14:22:26 14:26:24 40° 99° (E) 14:30:19 437.305
Oscar 19 31 Aug 14:26:04 14:31:07 55° 260° (W) 14:36:14 437.125/150
Gurwin Techsat 1B 31 Aug 14:30:36 14:35:54 77° 74° (ENE) 14:41:14 435.225
VELOX 1 31 Aug 14:30:42 14:33:58 20° 295° (WNW) 14:37:13 145.980
DX 1 31 Aug 14:33:14 14:36:54 26° 292° (WNW) 14:40:32 434.975-435.025
BEESAT 31 Aug 14:37:12 14:38:34 11° 89° (E) 14:39:57 436.000
AO-7 31 Aug 14:48:56 14:56:04 33° 57° (ENE) 15:03:11 29.400- 29.500
UKube-1 31 Aug 15:06:23 15:09:00 16° 296° (WNW) 15:11:38 .
O/OREOS (USA 219) 31 Aug 15:12:31 15:15:49 20° 304° (NW) 15:19:10 437.305
GONETS M04 31 Aug 15:20:46 15:23:03 11° 306° (NW) 15:25:19
ITUPSAT 1 31 Aug 15:25:00 15:29:23 35° 97° (E) 15:33:45 437.325
AO-85 31 Aug 15:26:17 15:28:25 14° 252° (WSW) 15:30:30 145.980
ISS 31 Aug 15:30:48 15:33:22 22° 227° (SW) 15:35:58 145.825
ITAMSAT 1 31 Aug 15:49:27 15:54:35 65° 258° (WSW) 15:59:45 435.822/435.867
SWISSCUBE 31 Aug 15:55:26 16:00:14 83° 103° (ESE) 16:05:00 437.505
TISAT 1 31 Aug 15:58:55 16:01:44 18° 295° (WNW) 16:04:31 437.305
